Total_Precipitation_Accumulation
0.09 0.09 0.09 0.09 0.10 0.11 0.12 0.16 0.21 0.20 0.12 0.05 0.04 0.04 0.07 0.15 0.26 0.29 0.29 0.21 0.14 0.10 0.07 0.06 0.05 0.06 0.06 0.07 0.08 0.10 0.12 0.17 0.29 0.43 0.57 0.71 0.80 0.87
0.10 0.11 0.10 0.10 0.10 0.10 0.10 0.13 0.19 0.27 0.23 0.09 0.04 0.05 0.10 0.16 0.30 0.34 0.37 0.33 0.24 0.16 0.11 0.08 0.07 0.07 0.08 0.10 0.11 0.12 0.15 0.18 0.26 0.36 0.50 0.64 0.75 0.88
0.08 0.09 0.09 0.09 0.10 0.10 0.10 0.12 0.14 0.21 0.25 0.13 0.06 0.07 0.14 0.22 0.29 0.32 0.32 0.31 0.27 0.25 0.18 0.15 0.13 0.11 0.11 0.12 0.14 0.17 0.21 0.26 0.32 0.39 0.51 0.66 0.75 0.79
0.08 0.08 0.08 0.08 0.09 0.09 0.10 0.11 0.14 0.20 0.29 0.24 0.13 0.09 0.12 0.19 0.26 0.28 0.24 0.23 0.26 0.28 0.22 0.16 0.13 0.13 0.18 0.15 0.13 0.16 0.22 0.31 0.39 0.45 0.55 0.65 0.71 0.74
0.07 0.08 0.09 0.10 0.09 0.11 0.14 0.15 0.18 0.22 0.30 0.33 0.21 0.16 0.17 0.24 0.35 0.35 0.30 0.38 0.31 0.26 0.22 0.17 0.16 0.17 0.40 0.46 0.22 0.18 0.21 0.33 0.40 0.46 0.57 0.63 0.62 0.61
0.06 0.09 0.10 0.11 0.13 0.18 0.19 0.22 0.27 0.31 0.32 0.35 0.28 0.21 0.23 0.29 0.41 0.48 0.44 0.42 0.38 0.24 0.27 0.24 0.22 0.28 0.65 1.20 0.67 0.35 0.29 0.33 0.39 0.44 0.49 0.49 0.46 0.42
0.06 0.09 0.11 0.11 0.16 0.19 0.19 0.24 0.32 0.38 0.40 0.42 0.36 0.30 0.28 0.37 0.47 0.51 0.48 0.45 0.38 0.32 0.38 0.33 0.49 0.82 1.34 1.99 1.53 0.88 0.63 0.52 0.45 0.45 0.46 0.45 0.40 0.32
0.09 0.10 0.08 0.07 0.08 0.09 0.14 0.21 0.30 0.39 0.46 0.51 0.48 0.44 0.37 0.44 0.55 0.58 0.59 0.57 0.45 0.32 0.37 0.38 0.68 1.41 2.11 2.52 2.10 1.31 0.98 0.77 0.63 0.64 0.65 0.56 0.42 0.32
0.12 0.12 0.09 0.08 0.12 0.17 0.17 0.17 0.25 0.33 0.46 0.59 0.61 0.52 0.49 0.54 0.67 0.72 0.66 0.65 0.60 0.43 0.46 0.47 0.81 1.66 2.04 2.29 2.11 1.44 1.14 0.96 0.85 0.88 0.85 0.64 0.44 0.32
0.10 0.12 0.15 0.18 0.16 0.13 0.14 0.22 0.32 0.42 0.48 0.54 0.61 0.55 0.53 0.55 0.63 0.67 0.64 0.62 0.51 0.45 0.53 0.62 0.90 1.53 1.68 1.83 1.93 1.50 1.22 1.09 1.02 1.00 0.92 0.68 0.47 0.37
0.09 0.11 0.12 0.17 0.13 0.12 0.19 0.31 0.39 0.52 0.60 0.73 0.73 0.67 0.66 0.65 0.56 0.53 0.63 0.71 0.62 0.44 0.48 0.62 0.85 1.20 1.33 1.47 1.54 1.45 1.33 1.24 1.15 1.08 0.95 0.70 0.52 0.43
0.10 0.14 0.13 0.11 0.11 0.15 0.22 0.38 0.54 0.62 0.79 0.99 0.94 0.87 0.82 0.78 0.66 0.59 0.71 0.83 0.78 0.59 0.49 0.57 0.73 0.92 1.14 1.24 1.20 1.18 1.27 1.34 1.29 1.24 1.08 0.78 0.52 0.41
0.12 0.18 0.22 0.16 0.16 0.18 0.29 0.47 0.65 0.68 0.87 1.12 1.01 0.83 0.74 0.67 0.65 0.66 0.71 0.75 0.71 0.67 0.55 0.61 0.74 0.85 0.98 1.08 1.12 1.16 1.15 1.20 1.26 1.34 1.26 0.98 0.65 0.45
0.22 0.25 0.27 0.25 0.22 0.27 0.40 0.59 0.73 0.87 1.01 1.09 0.91 0.71 0.60 0.57 0.57 0.54 0.52 0.52 0.54 0.56 0.53 0.59 0.77 0.91 0.92 0.85 1.02 1.11 1.16 1.22 1.26 1.32 1.31 1.15 0.87 0.67
0.26 0.33 0.33 0.30 0.37 0.55 0.68 0.79 0.91 1.05 1.07 0.94 0.78 0.67 0.55 0.49 0.46 0.45 0.43 0.45 0.48 0.44 0.41 0.46 0.63 0.80 0.84 0.81 0.93 0.99 1.13 1.36 1.41 1.39 1.32 1.17 0.98 0.77
0.23 0.38 0.46 0.50 0.63 0.83 0.96 1.05 1.11 1.12 0.97 0.85 0.73 0.62 0.51 0.45 0.43 0.39 0.39 0.41 0.43 0.44 0.41 0.44 0.55 0.67 0.75 0.75 0.85 0.98 1.09 1.49 1.62 1.45 1.35 1.31 1.13 0.93
0.23 0.37 0.52 0.59 0.74 0.90 1.01 1.05 1.07 1.06 0.97 0.84 0.72 0.61 0.52 0.47 0.44 0.39 0.38 0.39 0.42 0.43 0.44 0.48 0.55 0.60 0.63 0.67 0.83 1.00 1.14 1.38 1.52 1.34 1.18 1.27 1.24 1.05
0.29 0.46 0.59 0.63 0.72 0.82 0.91 0.99 0.97 0.92 0.84 0.79 0.73 0.66 0.58 0.50 0.47 0.42 0.38 0.39 0.42 0.43 0.44 0.43 0.42 0.39 0.44 0.58 0.85 0.96 1.01 1.19 1.25 1.11 0.92 0.97 1.14 1.04
0.35 0.54 0.66 0.72 0.77 0.81 0.82 0.85 0.90 0.88 0.80 0.74 0.68 0.62 0.54 0.48 0.45 0.42 0.37 0.36 0.36 0.37 0.35 0.29 0.25 0.22 0.26 0.57 0.91 1.03 0.96 0.95 0.91 0.87 0.79 0.75 0.89 0.92
0.39 0.55 0.66 0.72 0.77 0.79 0.77 0.73 0.76 0.78 0.72 0.63 0.58 0.53 0.49 0.45 0.41 0.38 0.34 0.27 0.27 0.26 0.26 0.23 0.21 0.22 0.27 0.47 0.89 1.12 0.95 0.71 0.62 0.65 0.66 0.65 0.77 0.85
0.37 0.50 0.60 0.65 0.66 0.66 0.67 0.65 0.65 0.67 0.63 0.57 0.53 0.49 0.45 0.40 0.37 0.30 0.25 0.18 0.21 0.22 0.23 0.27 0.28 0.22 0.19 0.25 0.52 0.83 0.89 0.81 0.60 0.51 0.49 0.51 0.54 0.51
0.34 0.45 0.54 0.56 0.55 0.51 0.49 0.49 0.50 0.50 0.50 0.48 0.47 0.45 0.41 0.36 0.29 0.24 0.21 0.21 0.22 0.20 0.20 0.22 0.21 0.18 0.17 0.22 0.39 0.59 0.66 0.59 0.54 0.53 0.49 0.38 0.32 0.39
0.32 0.36 0.42 0.45 0.44 0.40 0.36 0.34 0.34 0.37 0.38 0.38 0.39 0.38 0.33 0.29 0.23 0.18 0.16 0.13 0.13 0.14 0.13 0.16 0.16 0.15 0.15 0.17 0.23 0.31 0.34 0.32 0.27 0.30 0.44 0.48 0.41 0.47